sat.trackr.live / text

‹ back to catalog

STARLINK-4625

NORAD 53683 · 2022-105AM

PAYLOAD ACTIVE UNKNOWN

§ Identity

Operator
Country
US
Launch date
2022-08-31
Launch site
AFWTR
Launch vehicle
Mass (kg)
RCS (m²)

Purposes: comms

External: N2YO · Heavens-Above · Gunter

§ Orbital elements

Epoch: 2026-05-25T02:41:02.652000Z

Period
95.64 min
Inclination
97.4507°
Eccentricity
0.0002538
Mean motion
15.05647423 rev/d
Perigee alt
547.8 km
Apogee alt
551.3 km
Semi-major
6,927.7 km
B*
4.8302e-5
RAAN
25.1066°
Arg perigee
75.2859°
Mean anomaly
284.8649°
Rev number
20,473

§ Raw data

STARLINK-46251 53683U 22105AM  26145.11183625  .00000638  00000+0  48302-4 0  99972 53683  97.4507  25.1066 0002538  75.2859 284.8649 15.05647423204737

JSON: /api/v1/satellites/53683 · /tle

For live sub-satellite position, see the globe view (requires WebGL).

§ Visibility from observer

Set your observer location to see the next 7 days of passes ≥ 10°. The values pass through the URL so the page stays shareable.

No JS? Fill the form by hand. The geolocation button needs JavaScript.